Meteo Giornale » Osservazioni meteo Stati Uniti (USA) » Londonville

ore: 05:15 - Osservazioni Meteo Londonville
Lat. 44° 34' N Lon. 72° 1' W Alt. 363 metri s.l.m.

sereno America/New_York

-8 °C

Sereno

Temp. 24 Ore

-8 °C

0 °C

Nord/NOvest

7.4 Km/h

Dew point -14 °C

Umidità 61 %

Visibilità  10 Km

Il sole sorge alle ore 07:10

Il sole tramonta alle ore 16:09

Data e Ora Cielo e Fenomeni T °C DP °C Um. % Pres. hPa Vis. km Vento km/h
Oggi h: 05:15 sereno Sereno -8 -14 61 1020 10 N/NO 7.4
Oggi h: 04:55 sereno Sereno -8 -13 67 1020 10 N/NO 7.4
Oggi h: 04:35 sereno Sereno -8 -12 72 1020 10 N 0
Oggi h: 04:15 sereno Sereno -8 -13 67 1020 10 N 0
Oggi h: 03:55 sereno Sereno -8 -13 67 1020 10 N 0
Oggi h: 03:35 sereno Sereno -8 -12 72 1020 10 N 0
Oggi h: 03:15 sereno Sereno -7 -13 62 1020 10 N 0
Oggi h: 02:55 nuvoloso Nuvoloso -8 -12 72 1021 10 N 0
Oggi h: 02:35 nuvoloso Nuvoloso -7 -14 57 1021 10 N 0
Oggi h: 02:15 molto_nuvoloso Molto Nuvoloso -7 -14 57 1021 10 N 0
Oggi h: 01:55 coperto Coperto -7 -14 57 1021 10 N 0
Oggi h: 01:35 coperto Coperto -7 -13 62 1021 10 N 0
Oggi h: 01:15 coperto Coperto -7 -13 62 1021 10 N 5.5
Oggi h: 00:55 coperto Coperto -7 -13 62 1021 10 N 5.5
Oggi h: 00:35 coperto Coperto -7 -14 57 1021 10 N 5.5
Oggi h: 00:15 coperto Coperto -7 -13 62 1021 10 N 5.5
Ieri h: 23:55 coperto Coperto -7 -13 62 1021 10 N 5.5
Ieri h: 23:35 coperto Coperto -6 -13 57 1021 10 O/NO 9.3
Ieri h: 23:15 coperto Coperto -6 -13 57 1021 10 N 5.5
Ieri h: 22:55 coperto Coperto -6 -13 57 1022 10 N 5.5
Ieri h: 22:35 coperto Coperto -6 -13 57 1021 10 NO 7.4
Ieri h: 22:15 coperto Coperto -6 -12 62 1021 10 N 5.5
Ieri h: 21:55 coperto Coperto -6 -12 62 1021 10 O 9.3
Ieri h: 21:35 coperto Coperto -6 -12 62 1021 10 O 14.8
Ieri h: 21:15 coperto Coperto -6 -12 62 1021 10 O/NO 14.8
Ieri h: 20:55 coperto Coperto -5 -12 57 1021 10 O/NO 9.3
Ieri h: 20:35 coperto Coperto -5 -12 57 1020 10 O/NO 11.1
Ieri h: 20:15 coperto Coperto -5 -11 62 1020 10 NO 13
Ieri h: 19:55 coperto Coperto -4 -11 58 1020 10 N 5.5
Ieri h: 19:35 coperto Coperto -4 -11 58 1020 10 N 5.5
Ieri h: 19:15 coperto Coperto -4 -11 58 1020 10 O/NO 7.4
Ieri h: 18:55 coperto Coperto -4 -11 58 1020 10 O 14.8
Ieri h: 18:35 coperto Coperto -4 -11 58 1019 10 O 9.3
Ieri h: 18:15 coperto Coperto -4 -11 58 1019 10 O 7.4
Ieri h: 17:55 coperto Coperto -3 -11 53 1019 10 O/SO 7.4
Ieri h: 17:35 molto_nuvoloso Molto Nuvoloso -4 -11 58 1019 10 SO 11.1
Ieri h: 17:15 coperto Coperto -3 -11 53 1019 10 SO 9.3
Ieri h: 16:55 molto_nuvoloso Molto Nuvoloso -3 -11 53 1019 10 O/SO 9.3
Ieri h: 16:35 nuvoloso Nuvoloso -3 -11 53 1018 10 N 5.5
Ieri h: 16:15 sereno Sereno -3 -11 53 1018 10 O/SO 9.3
Ieri h: 15:55 sereno Sereno -3 -11 53 1018 10 O/SO 9.3
Ieri h: 15:35 sereno Sereno -3 -11 53 1017 10 O/SO 16.7
Ieri h: 15:15 sereno Sereno -3 -11 53 1017 10 O/SO 16.7
Ieri h: 14:55 nuvoloso Nuvoloso -3 -11 53 1017 10 O/SO 16.7
Ieri h: 14:35 nuvoloso Nuvoloso -2 -11 50 1017 10 O/SO 13
Ieri h: 14:15 nuvoloso Nuvoloso -2 -11 50 1017 10 O/SO 13
Ieri h: 13:55 nuvoloso Nuvoloso -2 -11 50 1017 10 O/SO 22.2
Ieri h: 13:35 sereno Sereno -2 -11 50 1017 10 O 20.3
Ieri h: 13:15 sereno Sereno -2 -11 50 1017 10 O 14.8
Ieri h: 12:55 nuvoloso Nuvoloso -2 -11 50 1017 10 O/SO 24
Ieri h: 12:35 sereno Sereno -2 -11 50 1017 10 SO 18.5
Ieri h: 12:15 sereno Sereno -2 -11 50 1017 10 SO 13
Ieri h: 11:55 sereno Sereno -2 -11 50 1016 10 O/SO 18.5
Ieri h: 11:35 sereno Sereno -2 -12 46 1017 10 SO 20.3
Ieri h: 11:15 sereno Sereno -2 -11 50 1017 10 SO 16.7
Ieri h: 10:55 sereno Sereno -2 -12 46 1016 10 O/SO 24
Ieri h: 10:35 sereno Sereno -2 -11 50 1016 10 SO 20.3
Ieri h: 10:15 sereno Sereno -3 -11 53 1017 10 O/SO 16.7
Ieri h: 09:55 sereno Sereno -3 -11 53 1017 10 O/SO 18.5
Ieri h: 09:35 sereno Sereno -3 -11 53 1016 10 O/SO 20.3
Ieri h: 09:15 sereno Sereno -3 -11 53 1016 10 SO 14.8
Ieri h: 08:55 sereno Sereno -3 -11 53 1015 10 O/SO 14.8
Ieri h: 08:35 sereno Sereno -3 -11 53 1014 10 O/SO 11.1
Ieri h: 08:15 sereno Sereno -3 -11 53 1014 10 O/SO 24
Ieri h: 07:55 sereno Sereno -3 -11 53 1014 10 O 18.5
Ieri h: 07:35 sereno Sereno -3 -10 58 1014 10 O/SO 13
Ieri h: 07:15 nuvoloso Nuvoloso -3 -11 53 1013 10 O/SO 25.9
Ieri h: 06:55 sereno Sereno -3 -10 58 1013 10 O/SO 20.3
Ieri h: 06:35 sereno Sereno -2 -10 54 1012 10 O/SO 22.2
Ieri h: 06:15 sereno Sereno -2 -10 54 1012 10 O/SO 20.3
Ieri h: 05:55 sereno Sereno -2 -10 54 1011 10 O 38.8
Ieri h: 05:35 nuvoloso Nuvoloso -1 -8 58 1011 10 O/SO 22.2
Ieri h: 05:15 coperto Precipitazioni -1 -7 63 1010 10 O 29.6
Ieri h: 04:55 coperto Coperto 0 -7 59 1009 10 O 27.8
Ieri h: 04:35 coperto_pioggia Pioviggine Leggera 0 -6 63 1008 10 O/SO 31.5